| time (UTC) | temp F | wind direction | speed MPH | gust MPH | rain 1hr in | rain 24hr in | rain mn in | humidity % | barometer mb |
| 20260905213613 | 75 | 110 | 1.0 | 3.0 | 0.00 | 0.00 | 0.00 | 32 | 1024.2 |
| 20260905212712 | 76 | 112 | 1.0 | 6.0 | 0.00 | 0.00 | 0.00 | 31 | 1024.6 |
| 20260905211813 | 77 | 99 | 2.0 | 9.0 | 0.00 | 0.00 | 0.00 | 30 | 1024.6 |
| 20260905210912 | 77 | 85 | 2.0 | 10.0 | 0.00 | 0.00 | 0.00 | 31 | 1024.6 |
| 20260905210014 | 78 | 101 | 3.0 | 11.0 | 0.00 | 0.00 | 0.00 | 30 | 1024.6 |
| 20260905205413 | 78 | 91 | 3.0 | 9.0 | 0.00 | 0.00 | 0.00 | 32 | 1024.6 |
| 20260905204512 | 79 | 109 | 3.0 | 9.0 | 0.00 | 0.00 | 0.00 | 31 | 1024.6 |
| 20260905203612 | 80 | 119 | 4.0 | 9.0 | 0.00 | 0.00 | 0.00 | 31 | 1024.6 |
| 20260905202712 | 80 | 105 | 5.0 | 12.0 | 0.00 | 0.00 | 0.00 | 28 | 1024.6 |
| 20260905201813 | 81 | 102 | 4.0 | 10.0 | 0.00 | 0.00 | 0.00 | 32 | 1024.6 |
| 20260905200912 | 80 | 93 | 3.0 | 10.0 | 0.00 | 0.00 | 0.00 | 30 | 1024.6 |
| 20260905200013 | 80 | 90 | 3.0 | 9.0 | 0.00 | 0.00 | 0.00 | 28 | 1024.6 |
| 20260905195412 | 79 | 91 | 2.0 | 9.0 | 0.00 | 0.00 | 0.00 | 30 | 1024.6 |
| 20260905194511 | 78 | 102 | 4.0 | 9.0 | 0.00 | 0.00 | 0.00 | 36 | 1024.6 |
| 20260905193612 | 77 | 118 | 3.0 | 12.0 | 0.00 | 0.00 | 0.00 | 34 | 1024.6 |
| 20260905192711 | 76 | 109 | 2.0 | 5.0 | 0.00 | 0.00 | 0.00 | 31 | 1024.6 |
| 20260905191812 | 77 | 104 | 2.0 | 7.0 | 0.00 | 0.00 | 0.00 | 30 | 1024.6 |
| 20260905190914 | 80 | 93 | 3.0 | 7.0 | 0.00 | 0.00 | 0.00 | 31 | 1024.6 |
| 20260905190012 | 80 | 101 | 5.0 | 11.0 | 0.00 | 0.00 | 0.00 | 30 | 1024.6 |
| 20260905185433 | 78 | 113 | 4.0 | 11.0 | 0.00 | 0.00 | 0.00 | 32 | 1024.6 |
| 20260905184513 | 76 | 121 | 3.0 | 8.0 | 0.00 | 0.00 | 0.00 | 33 | 1024.6 |
| 20260905183612 | 75 | 126 | 2.0 | 5.0 | 0.00 | 0.00 | 0.00 | 31 | 1024.6 |
| 20260905182711 | 79 | 113 | 2.0 | 9.0 | 0.00 | 0.00 | 0.00 | 29 | 1025.3 |
| 20260905181833 | 77 | 58 | 2.0 | 5.0 | 0.00 | 0.00 | 0.00 | 33 | 1025.3 |
| 20260905180913 | 75 | 220 | 1.0 | 5.0 | 0.00 | 0.00 | 0.00 | 33 | 1025.3 |
| 20260905180034 | 76 | 178 | 2.0 | 4.0 | 0.00 | 0.00 | 0.00 | 31 | 1025.3 |
| 20260905175412 | 76 | 221 | 1.0 | 4.0 | 0.00 | 0.00 | 0.00 | 31 | 1025.3 |
| 20260905174511 | 77 | 84 | 2.0 | 4.0 | 0.00 | 0.00 | 0.00 | 34 | 1025.3 |
| 20260905173612 | 76 | 115 | 3.0 | 8.0 | 0.00 | 0.00 | 0.00 | 33 | 1025.3 |
| 20260905172711 | 75 | 124 | 2.0 | 5.0 | 0.00 | 0.00 | 0.00 | 31 | 1025.2 |
| 20260905171812 | 74 | 79 | 2.0 | 4.0 | 0.00 | 0.00 | 0.00 | 35 | 1025.2 |
| 20260905170911 | 76 | 79 | 2.0 | 4.0 | 0.00 | 0.00 | 0.00 | 30 | 1025.2 |
| 20260905170012 | 75 | 93 | 2.0 | 5.0 | 0.00 | 0.00 | 0.00 | 32 | 1025.2 |
| 20260905165412 | 74 | 63 | 2.0 | 5.0 | 0.00 | 0.00 | 0.00 | 36 | 1025.2 |
| 20260905164511 | 74 | 76 | 1.0 | 4.0 | 0.00 | 0.00 | 0.00 | 36 | 1025.2 |
| 20260905163612 | 75 | 101 | 1.0 | 3.0 | 0.00 | 0.00 | 0.00 | 31 | 1025.2 |
| 20260905162711 | 74 | 80 | 2.0 | 5.0 | 0.00 | 0.00 | 0.00 | 31 | 1025.5 |
| 20260905161833 | 72 | 108 | 2.0 | 6.0 | 0.00 | 0.00 | 0.00 | 35 | 1025.5 |
| 20260905160911 | 70 | 80 | 1.0 | 3.0 | 0.00 | 0.00 | 0.00 | 41 | 1025.5 |
| 20260905160012 | 68 | 69 | 1.0 | 6.0 | 0.00 | 0.00 | 0.00 | 44 | 1025.5 |
| 20260905155412 | 66 | 29 | 2.0 | 5.0 | 0.00 | 0.00 | 0.00 | 45 | 1025.5 |
| 20260905154511 | 64 | 270 | 2.0 | 7.0 | 0.00 | 0.00 | 0.00 | 51 | 1025.5 |
| 20260905153617 | 61 | 58 | 1.0 | 4.0 | 0.00 | 0.00 | 0.00 | 59 | 1025.5 |
| 20260905152711 | 58 | 63 | 2.0 | 10.0 | 0.00 | 0.00 | 0.00 | 64 | 1026.1 |
| 20260905151833 | 56 | 88 | 0.0 | 2.0 | 0.00 | 0.00 | 0.00 | 73 | 1026.1 |
| 20260905150911 | 54 | 95 | 1.0 | 4.0 | 0.00 | 0.00 | 0.00 | 77 | 1026.1 |
| 20260905150012 | 52 | 105 | 0.0 | 1.0 | 0.00 | 0.00 | 0.00 | 78 | 1026.1 |
| 20260905145411 | 52 | 0 | 0.0 | 0.0 | 0.00 | 0.00 | 0.00 | 77 | 1026.1 |
| 20260905144532 | 51 | 0 | 0.0 | 0.0 | 0.00 | 0.00 | 0.00 | 77 | 1026.1 |
| 20260905143632 | 50 | 0 | 0.0 | 0.0 | 0.00 | 0.00 | 0.00 | 78 | 1026.1 |
| 20260905142710 | 49 | 0 | 0.0 | 0.0 | 0.00 | 0.00 | 0.00 | 79 | 1025.9 |
| 20260905141811 | 48 | 0 | 0.0 | 0.0 | 0.00 | 0.00 | 0.00 | 79 | 1025.9 |
| 20260905140911 | 48 | 0 | 0.0 | 0.0 | 0.00 | 0.00 | 0.00 | 79 | 1025.9 |
| 20260905140033 | 47 | 0 | 0.0 | 0.0 | 0.00 | 0.00 | 0.00 | 79 | 1025.9 |
| 20260905135413 | 47 | 0 | 0.0 | 0.0 | 0.00 | 0.00 | 0.00 | 79 | 1025.9 |
| 20260905134510 | 46 | 0 | 0.0 | 0.0 | 0.00 | 0.00 | 0.00 | 78 | 1025.9 |
| 20260905133611 | 46 | 0 | 0.0 | 0.0 | 0.00 | 0.00 | 0.00 | 78 | 1025.9 |
| 20260905132710 | 46 | 0 | 0.0 | 0.0 | 0.00 | 0.00 | 0.00 | 77 | 1025.3 |
| 20260905131811 | 46 | 0 | 0.0 | 0.0 | 0.00 | 0.00 | 0.00 | 77 | 1025.3 |
| 20260905130910 | 46 | 0 | 0.0 | 0.0 | 0.00 | 0.00 | 0.00 | 77 | 1025.3 |
| 20260905130012 | 46 | 0 | 0.0 | 0.0 | 0.00 | 0.00 | 0.00 | 77 | 1025.3 |
| 20260905125411 | 46 | 0 | 0.0 | 0.0 | 0.00 | 0.00 | 0.00 | 78 | 1025.3 |
| 20260905124510 | 46 | 0 | 0.0 | 0.0 | 0.00 | 0.00 | 0.00 | 76 | 1025.3 |
| 20260905123611 | 46 | 0 | 0.0 | 0.0 | 0.00 | 0.00 | 0.00 | 77 | 1025.3 |
| 20260905122710 | 46 | 0 | 0.0 | 0.0 | 0.00 | 0.00 | 0.00 | 77 | 1025.4 |
| 20260905121811 | 46 | 0 | 0.0 | 0.0 | 0.00 | 0.00 | 0.00 | 77 | 1025.4 |
| 20260905120910 | 46 | 0 | 0.0 | 0.0 | 0.00 | 0.00 | 0.00 | 78 | 1025.4 |
| 20260905120032 | 46 | 0 | 0.0 | 0.0 | 0.00 | 0.00 | 0.00 | 77 | 1025.4 |
| 20260905115411 | 46 | 0 | 0.0 | 0.0 | 0.00 | 0.00 | 0.00 | 77 | 1025.4 |
| 20260905114514 | 46 | 0 | 0.0 | 0.0 | 0.00 | 0.00 | 0.00 | 78 | 1025.4 |
| 20260905113611 | 46 | 0 | 0.0 | 0.0 | 0.00 | 0.00 | 0.00 | 78 | 1025.4 |
| 20260905112710 | 47 | 0 | 0.0 | 0.0 | 0.00 | 0.00 | 0.00 | 77 | 1025.1 |
| 20260905111832 | 47 | 0 | 0.0 | 0.0 | 0.00 | 0.00 | 0.00 | 77 | 1025.1 |
| 20260905110931 | 47 | 0 | 0.0 | 0.0 | 0.00 | 0.00 | 0.00 | 76 | 1025.1 |
| 20260905110011 | 47 | 0 | 0.0 | 0.0 | 0.00 | 0.00 | 0.00 | 76 | 1025.1 |
| 20260905105411 | 47 | 0 | 0.0 | 0.0 | 0.00 | 0.00 | 0.00 | 77 | 1025.1 |
| 20260905104509 | 47 | 0 | 0.0 | 0.0 | 0.00 | 0.00 | 0.00 | 77 | 1025.1 |
| 20260905103611 | 47 | 0 | 0.0 | 0.0 | 0.00 | 0.00 | 0.00 | 77 | 1025.1 |
| 20260905102709 | 48 | 0 | 0.0 | 0.0 | 0.00 | 0.00 | 0.00 | 77 | 1024.9 |
| 20260905101811 | 48 | 0 | 0.0 | 0.0 | 0.00 | 0.00 | 0.00 | 76 | 1024.9 |
| 20260905100912 | 48 | 0 | 0.0 | 0.0 | 0.00 | 0.00 | 0.00 | 76 | 1024.9 |
| 20260905095410 | 48 | 0 | 0.0 | 0.0 | 0.00 | 0.00 | 0.00 | 75 | 1024.7 |
| 20260905094509 | 48 | 0 | 0.0 | 0.0 | 0.00 | 0.00 | 0.00 | 77 | 1024.7 |
| 20260905093631 | 48 | 0 | 0.0 | 0.0 | 0.00 | 0.00 | 0.00 | 75 | 1024.7 |
| 20260905092710 | 48 | 0 | 0.0 | 0.0 | 0.00 | 0.00 | 0.00 | 76 | 1024.7 |
| 20260905091831 | 48 | 0 | 0.0 | 0.0 | 0.00 | 0.00 | 0.00 | 75 | 1024.7 |
| 20260905090930 | 48 | 0 | 0.0 | 0.0 | 0.00 | 0.00 | 0.00 | 76 | 1024.7 |
| 20260905090032 | 49 | 0 | 0.0 | 0.0 | 0.00 | 0.00 | 0.00 | 74 | 1024.7 |
| 20260905085410 | 49 | 0 | 0.0 | 0.0 | 0.00 | 0.00 | 0.00 | 75 | 1024.7 |
| 20260905084509 | 49 | 0 | 0.0 | 0.0 | 0.00 | 0.00 | 0.00 | 73 | 1024.7 |
| 20260905083610 | 49 | 0 | 0.0 | 0.0 | 0.00 | 0.00 | 0.00 | 73 | 1024.7 |
| 20260905082709 | 50 | 0 | 0.0 | 0.0 | 0.00 | 0.00 | 0.00 | 73 | 1024.7 |
| 20260905081810 | 50 | 0 | 0.0 | 0.0 | 0.00 | 0.00 | 0.00 | 71 | 1024.7 |
| 20260905080909 | 50 | 0 | 0.0 | 0.0 | 0.00 | 0.00 | 0.00 | 70 | 1024.7 |
| 20260905080012 | 50 | 0 | 0.0 | 0.0 | 0.00 | 0.00 | 0.00 | 72 | 1024.7 |
| 20260905075414 | 50 | 0 | 0.0 | 0.0 | 0.00 | 0.00 | 0.00 | 70 | 1024.7 |
| 20260905074509 | 50 | 0 | 0.0 | 0.0 | 0.00 | 0.00 | 0.00 | 70 | 1024.7 |
| 20260905073612 | 51 | 0 | 0.0 | 0.0 | 0.00 | 0.00 | 0.00 | 70 | 1024.7 |
| 20260905072730 | 51 | 0 | 0.0 | 0.0 | 0.00 | 0.00 | 0.00 | 71 | 1024.7 |
| 20260905071810 | 51 | 0 | 0.0 | 0.0 | 0.00 | 0.00 | 0.00 | 69 | 1024.7 |
| 20260905070911 | 51 | 0 | 0.0 | 0.0 | 0.00 | 0.00 | 0.00 | 69 | 1024.7 |
| 20260905070026 | 51 | 0 | 0.0 | 0.0 | 0.00 | 0.00 | 0.00 | 70 | 1024.7 |
| 20260905065411 | 52 | 0 | 0.0 | 0.0 | 0.00 | 0.00 | 0.00 | 69 | 1024.7 |
| 20260905064509 | 52 | 0 | 0.0 | 0.0 | 0.00 | 0.00 | 0.00 | 67 | 1024.7 |
| 20260905063631 | 52 | 0 | 0.0 | 0.0 | 0.00 | 0.00 | 0.00 | 68 | 1024.6 |
| 20260905062709 | 52 | 0 | 0.0 | 0.0 | 0.00 | 0.00 | 0.00 | 67 | 1024.6 |
| 20260905061811 | 53 | 0 | 0.0 | 0.0 | 0.00 | 0.00 | 0.00 | 66 | 1024.6 |
| 20260905060909 | 53 | 0 | 0.0 | 0.0 | 0.00 | 0.00 | 0.00 | 66 | 1024.6 |
| 20260905060016 | 54 | 0 | 0.0 | 0.0 | 0.00 | 0.00 | 0.00 | 65 | 1024.6 |
| 20260905055409 | 54 | 0 | 0.0 | 0.0 | 0.00 | 0.00 | 0.00 | 65 | 1024.5 |
| 20260905054509 | 54 | 109 | 0.0 | 2.0 | 0.00 | 0.00 | 0.00 | 64 | 1024.5 |
| 20260905053610 | 54 | 0 | 0.0 | 0.0 | 0.00 | 0.00 | 0.00 | 65 | 1024.5 |
| 20260905052731 | 55 | 0 | 0.0 | 0.0 | 0.00 | 0.00 | 0.00 | 64 | 1024.5 |
| 20260905051810 | 55 | 0 | 0.0 | 0.0 | 0.00 | 0.00 | 0.00 | 61 | 1024.5 |
| 20260905050909 | 56 | 0 | 0.0 | 0.0 | 0.00 | 0.00 | 0.00 | 62 | 1024.5 |
| 20260905050010 | 56 | 0 | 0.0 | 0.0 | 0.00 | 0.00 | 0.00 | 59 | 1024.5 |
| 20260905045409 | 56 | 0 | 0.0 | 0.0 | 0.00 | 0.00 | 0.00 | 63 | 1024.3 |
| 20260905044508 | 57 | 0 | 0.0 | 0.0 | 0.00 | 0.00 | 0.00 | 63 | 1024.3 |
| 20260905043609 | 57 | 0 | 0.0 | 0.0 | 0.00 | 0.00 | 0.00 | 61 | 1024.3 |
| 20260905042709 | 57 | 0 | 0.0 | 0.0 | 0.00 | 0.00 | 0.00 | 63 | 1024.3 |
| 20260905041809 | 58 | 0 | 0.0 | 0.0 | 0.00 | 0.00 | 0.00 | 58 | 1024.3 |
| 20260905040930 | 58 | 109 | 0.0 | 1.0 | 0.00 | 0.00 | 0.00 | 61 | 1024.3 |
| 20260905040010 | 58 | 0 | 0.0 | 0.0 | 0.00 | 0.00 | 0.00 | 63 | 1024.3 |
| 20260905035409 | 59 | 0 | 0.0 | 0.0 | 0.00 | 0.00 | 0.00 | 62 | 1023.6 |
| 20260905034508 | 60 | 0 | 0.0 | 0.0 | 0.00 | 0.00 | 0.00 | 60 | 1023.6 |
| 20260905033614 | 60 | 0 | 0.0 | 0.0 | 0.00 | 0.00 | 0.00 | 60 | 1023.6 |
| 20260905032708 | 60 | 0 | 0.0 | 0.0 | 0.00 | 0.00 | 0.00 | 55 | 1023.6 |
| 20260905031830 | 60 | 0 | 0.0 | 0.0 | 0.00 | 0.00 | 0.00 | 57 | 1023.6 |
| 20260905030908 | 60 | 0 | 0.0 | 0.0 | 0.00 | 0.00 | 0.00 | 57 | 1023.6 |
| 20260905030010 | 61 | 0 | 0.0 | 0.0 | 0.00 | 0.00 | 0.00 | 56 | 1023.6 |
| 20260905025409 | 61 | 0 | 0.0 | 0.0 | 0.00 | 0.00 | 0.00 | 58 | 1023.6 |
| 20260905024508 | 62 | 0 | 0.0 | 0.0 | 0.00 | 0.00 | 0.00 | 57 | 1023.6 |
| 20260905023610 | 62 | 109 | 0.0 | 2.0 | 0.00 | 0.00 | 0.00 | 52 | 1023.6 |
| 20260905022708 | 62 | 0 | 0.0 | 0.0 | 0.00 | 0.00 | 0.00 | 54 | 1023.6 |
| 20260905021809 | 63 | 109 | 0.0 | 2.0 | 0.00 | 0.00 | 0.00 | 52 | 1023.6 |
| 20260905020908 | 63 | 109 | 0.0 | 2.0 | 0.00 | 0.00 | 0.00 | 50 | 1023.6 |
| 20260905020031 | 63 | 0 | 0.0 | 0.0 | 0.00 | 0.00 | 0.00 | 54 | 1023.2 |
| 20260905015430 | 64 | 0 | 0.0 | 0.0 | 0.00 | 0.00 | 0.00 | 51 | 1023.2 |
| 20260905014508 | 64 | 109 | 1.0 | 2.0 | 0.00 | 0.00 | 0.00 | 51 | 1023.2 |
| 20260905013630 | 64 | 109 | 0.0 | 2.0 | 0.00 | 0.00 | 0.00 | 50 | 1023.2 |
| 20260905012707 | 65 | 108 | 0.0 | 1.0 | 0.00 | 0.00 | 0.00 | 50 | 1023.2 |
| 20260905011830 | 65 | 0 | 0.0 | 0.0 | 0.00 | 0.00 | 0.00 | 51 | 1023.2 |
| 20260905010908 | 65 | 0 | 0.0 | 0.0 | 0.00 | 0.00 | 0.00 | 52 | 1023.2 |
| 20260905010009 | 66 | 0 | 0.0 | 0.0 | 0.00 | 0.00 | 0.00 | 51 | 1022.6 |
| 20260905005414 | 66 | 0 | 0.0 | 0.0 | 0.00 | 0.00 | 0.00 | 49 | 1022.6 |
| 20260905004512 | 67 | 0 | 0.0 | 0.0 | 0.00 | 0.00 | 0.00 | 50 | 1022.6 |
| 20260905003614 | 68 | 0 | 0.0 | 0.0 | 0.00 | 0.00 | 0.00 | 44 | 1022.6 |
| 20260905002713 | 69 | 109 | 0.0 | 2.0 | 0.00 | 0.00 | 0.00 | 49 | 1022.6 |
| 20260905001813 | 70 | 106 | 0.0 | 4.0 | 0.00 | 0.00 | 0.00 | 45 | 1022.6 |
| 20260905000912 | 70 | 0 | 0.0 | 0.0 | 0.00 | 0.00 | 0.00 | 41 | 1022.6 |
| 20260905000014 | 72 | 0 | 0.0 | 0.0 | 0.00 | 0.00 | 0.00 | 40 | 1022.6 |
| 20260904235414 | 73 | 111 | 1.0 | 3.0 | 0.00 | 0.00 | 0.00 | 32 | 1022.6 |
| 20260904234533 | 73 | 112 | 1.0 | 3.0 | 0.00 | 0.00 | 0.00 | 32 | 1022.6 |
| 20260904233613 | 73 | 106 | 1.0 | 3.0 | 0.00 | 0.00 | 0.00 | 35 | 1022.6 |
| 20260904232733 | 73 | 103 | 1.0 | 7.0 | 0.00 | 0.00 | 0.00 | 33 | 1022.6 |
| 20260904231834 | 73 | 111 | 0.0 | 4.0 | 0.00 | 0.00 | 0.00 | 34 | 1022.6 |
| 20260904230912 | 74 | 339 | 1.0 | 4.0 | 0.00 | 0.00 | 0.00 | 35 | 1022.6 |
| 20260904230014 | 75 | 252 | 2.0 | 6.0 | 0.00 | 0.00 | 0.00 | 26 | 1022.6 |
| 20260904225415 | 74 | 152 | 1.0 | 4.0 | 0.00 | 0.00 | 0.00 | 28 | 1022.6 |
| 20260904224512 | 75 | 107 | 2.0 | 4.0 | 0.00 | 0.00 | 0.00 | 26 | 1022.6 |
| 20260904223634 | 75 | 60 | 1.0 | 4.0 | 0.00 | 0.00 | 0.00 | 29 | 1022.6 |
| 20260904222733 | 75 | 95 | 2.0 | 5.0 | 0.00 | 0.00 | 0.00 | 29 | 1022.6 |
| 20260904221813 | 75 | 108 | 2.0 | 8.0 | 0.00 | 0.00 | 0.00 | 29 | 1022.6 |
| 20260904220914 | 74 | 110 | 4.0 | 8.0 | 0.00 | 0.00 | 0.00 | 28 | 1022.6 |
| 20260904220013 | 74 | 109 | 3.0 | 8.0 | 0.00 | 0.00 | 0.00 | 30 | 1022.6 |
| 20260904215413 | 75 | 108 | 3.0 | 8.0 | 0.00 | 0.00 | 0.00 | 29 | 1022.6 |
| 20260904214533 | 76 | 114 | 4.0 | 9.0 | 0.00 | 0.00 | 0.00 | 28 | 1022.6 |